• In Hungary
  • List of Countries
  • For 7 days
  • Water Temperature
  • Satellite Maps
  • Weather Map
  • News
  • Weather Widgets
  • user-avatar
    Login

    Hourly Weather Kolpachiha

    Today, 20 August, Monday

    Time Temperature Precipitation Wind Pressure Humidity
    00:00 +17°C° 0 mm 2 mps 748 mmHg 96%
    01:00 +16°C° 0 mm 2 mps 748 mmHg 96%
    02:00 +16°C° 0 mm 2 mps 747 mmHg 97%
    03:00 +16°C° 0.1 mm 2 mps 747 mmHg 96%
    04:00 +16°C° 0.1 mm 2 mps 747 mmHg 96%
    05:00 +16°C° 0.1 mm 2 mps 747 mmHg 96%
    06:00 +17°C° 0 mm 2 mps 747 mmHg 92%
    07:00 +18°C° 0 mm 3 mps 747 mmHg 89%
    08:00 +19°C° 0 mm 3 mps 747 mmHg 86%
    09:00 +20°C° 0.2 mm 3 mps 747 mmHg 83%
    10:00 +20°C° 0.2 mm 3 mps 747 mmHg 81%
    11:00 +21°C° 0.2 mm 3 mps 747 mmHg 79%
    12:00 +20°C° 0.8 mm 3 mps 747 mmHg 82%
    13:00 +20°C° 0.8 mm 3 mps 747 mmHg 85%
    14:00 +20°C° 0.8 mm 3 mps 746 mmHg 88%
    15:00 +20°C° 0.4 mm 2 mps 746 mmHg 88%
    16:00 +20°C° 0.4 mm 2 mps 746 mmHg 89%
    17:00 +20°C° 0.4 mm 2 mps 746 mmHg 90%
    18:00 +19°C° 0.1 mm 2 mps 745 mmHg 92%
    19:00 +18°C° 0.1 mm 2 mps 745 mmHg 94%
    20:00 +17°C° 0.1 mm 2 mps 745 mmHg 96%
    21:00 +17°C° 0 mm 2 mps 744 mmHg 96%
    22:00 +17°C° 0 mm 3 mps 744 mmHg 96%
    23:00 +17°C° 0 mm 3 mps 744 mmHg 96%

    Tomorrow, 21 August, Tuesday

    Time Temperature Precipitation Wind Pressure Humidity
    00:00 +17°C° 0.2 mm 3 mps 743 mmHg 96%
    01:00 +17°C° 0.2 mm 4 mps 742 mmHg 95%
    02:00 +17°C° 0.2 mm 4 mps 742 mmHg 95%
    03:00 +17°C° 0.1 mm 4 mps 741 mmHg 94%
    04:00 +16°C° 0.1 mm 5 mps 741 mmHg 94%
    05:00 +16°C° 0.1 mm 5 mps 740 mmHg 93%
    06:00 +17°C° 0.6 mm 5 mps 739 mmHg 92%
    07:00 +17°C° 0.6 mm 6 mps 739 mmHg 90%
    08:00 +19°C° 0.6 mm 6 mps 738 mmHg 89%
    09:00 +19°C° 0.7 mm 6 mps 738 mmHg 88%
    10:00 +19°C° 0.7 mm 6 mps 738 mmHg 88%
    11:00 +19°C° 0.7 mm 6 mps 738 mmHg 88%
    12:00 +18°C° 0.2 mm 7 mps 738 mmHg 80%
    13:00 +18°C° 0.2 mm 7 mps 739 mmHg 72%
    14:00 +18°C° 0.2 mm 8 mps 739 mmHg 63%
    15:00 +17°C° 0 mm 7 mps 740 mmHg 66%
    16:00 +17°C° 0 mm 6 mps 740 mmHg 68%
    17:00 +16°C° 0 mm 6 mps 741 mmHg 70%
    18:00 +15°C° 0 mm 5 mps 741 mmHg 74%
    19:00 +14°C° 0 mm 5 mps 741 mmHg 78%
    20:00 +13°C° 0 mm 4 mps 742 mmHg 83%
    21:00 +12°C° 0 mm 4 mps 742 mmHg 84%
    22:00 +12°C° 0 mm 4 mps 742 mmHg 85%
    23:00 +11°C° 0 mm 4 mps 742 mmHg 86%

    Day after tomorrow, 22 August, Wednesday

    Time Temperature Precipitation Wind Pressure Humidity
    00:00 +11°C° 0 mm 4 mps 742 mmHg 85%
    01:00 +11°C° 0 mm 4 mps 743 mmHg 84%
    02:00 +10°C° 0 mm 4 mps 743 mmHg 83%
    03:00 +10°C° 0 mm 4 mps 743 mmHg 83%
    04:00 +10°C° 0 mm 4 mps 744 mmHg 83%
    05:00 +9°C° 0 mm 5 mps 744 mmHg 83%
    06:00 +10°C° 0 mm 5 mps 744 mmHg 78%
    07:00 +12°C° 0 mm 5 mps 745 mmHg 73%
    08:00 +14°C° 0 mm 6 mps 745 mmHg 67%
    09:00 +15°C° 0 mm 6 mps 746 mmHg 62%
    10:00 +15°C° 0 mm 6 mps 746 mmHg 58%
    11:00 +16°C° 0 mm 6 mps 746 mmHg 53%
    12:00 +16°C° 0 mm 6 mps 747 mmHg 52%
    13:00 +17°C° 0 mm 6 mps 747 mmHg 51%
    14:00 +17°C° 0 mm 6 mps 747 mmHg 51%
    15:00 +16°C° 0 mm 5 mps 748 mmHg 53%
    16:00 +17°C° 0 mm 4 mps 748 mmHg 56%
    17:00 +15°C° 0 mm 4 mps 749 mmHg 59%
    18:00 +14°C° 0 mm 3 mps 749 mmHg 62%
    19:00 +12°C° 0 mm 3 mps 750 mmHg 66%
    20:00 +11°C° 0 mm 3 mps 750 mmHg 70%
    21:00 +10°C° 0 mm 3 mps 751 mmHg 73%
    22:00 +9°C° 0 mm 2 mps 751 mmHg 75%
    23:00 +8°C° 0 mm 2 mps 752 mmHg 78%

    23 August, Thursday

    Time Temperature Precipitation Wind Pressure Humidity
    00:00 +8°C° 0 mm 2 mps 752 mmHg 80%
    01:00 +7°C° 0 mm 2 mps 752 mmHg 82%
    02:00 +7°C° 0 mm 2 mps 753 mmHg 84%
    03:00 +7°C° 0 mm 2 mps 753 mmHg 84%
    04:00 +7°C° 0 mm 2 mps 753 mmHg 84%
    05:00 +7°C° 0 mm 2 mps 753 mmHg 84%
    06:00 +9°C° 0 mm 2 mps 753 mmHg 77%
    07:00 +12°C° 0 mm 2 mps 753 mmHg 70%
    08:00 +14°C° 0 mm 2 mps 753 mmHg 62%
    09:00 +16°C° 0 mm 3 mps 753 mmHg 57%
    10:00 +17°C° 0 mm 3 mps 753 mmHg 52%
    11:00 +18°C° 0 mm 3 mps 753 mmHg 47%
    12:00 +19°C° 0 mm 3 mps 753 mmHg 46%
    13:00 +20°C° 0 mm 3 mps 753 mmHg 46%
    14:00 +20°C° 0 mm 3 mps 752 mmHg 46%
    15:00 +20°C° 0 mm 3 mps 752 mmHg 50%
    16:00 +19°C° 0 mm 3 mps 752 mmHg 54%
    17:00 +19°C° 0 mm 2 mps 752 mmHg 59%
    18:00 +17°C° 0 mm 2 mps 752 mmHg 65%
    19:00 +15°C° 0 mm 2 mps 752 mmHg 70%
    20:00 +13°C° 0 mm 2 mps 752 mmHg 76%
    21:00 +13°C° 0 mm 2 mps 752 mmHg 79%
    22:00 +12°C° 0 mm 2 mps 752 mmHg 81%
    23:00 +12°C° 0 mm 2 mps 752 mmHg 83%

    24 August, Friday

    Time Temperature Precipitation Wind Pressure Humidity
    00:00 +10°C° 0 mm 2 mps 752 mmHg 85%
    01:00 +10°C° 0 mm 2 mps 752 mmHg 87%
    02:00 +9°C° 0 mm 2 mps 752 mmHg 88%
    03:00 +9°C° 0 mm 2 mps 752 mmHg 89%
    04:00 +9°C° 0 mm 2 mps 752 mmHg 89%
    05:00 +9°C° 0 mm 2 mps 752 mmHg 89%
    06:00 +12°C° 0 mm 2 mps 752 mmHg 82%
    07:00 +14°C° 0 mm 2 mps 752 mmHg 75%
    08:00 +16°C° 0 mm 2 mps 752 mmHg 68%
    09:00 +18°C° 0 mm 2 mps 752 mmHg 62%
    10:00 +19°C° 0 mm 3 mps 752 mmHg 57%
    11:00 +21°C° 0 mm 3 mps 752 mmHg 51%
    12:00 +21°C° 0 mm 3 mps 752 mmHg 50%
    13:00 +22°C° 0 mm 3 mps 751 mmHg 49%
    14:00 +23°C° 0 mm 2 mps 751 mmHg 47%
    15:00 +23°C° 0 mm 2 mps 751 mmHg 52%
    16:00 +23°C° 0 mm 2 mps 751 mmHg 56%
    17:00 +22°C° 0 mm 1 mps 751 mmHg 60%
    18:00 +20°C° 0 mm 1 mps 751 mmHg 66%
    19:00 +18°C° 0 mm 1 mps 751 mmHg 72%
    20:00 +15°C° 0 mm 1 mps 751 mmHg 78%
    21:00 +14°C° 0 mm 1 mps 751 mmHg 80%
    22:00 +14°C° 0 mm 1 mps 751 mmHg 82%
    23:00 +13°C° 0 mm 1 mps 751 mmHg 84%

    25 August, Saturday

    Time Temperature Precipitation Wind Pressure Humidity
    00:00 +13°C° 0 mm 1 mps 751 mmHg 86%
    01:00 +13°C° 0 mm 1 mps 751 mmHg 87%
    02:00 +12°C° 0 mm 2 mps 751 mmHg 89%
    03:00 +12°C° 0 mm 2 mps 751 mmHg 89%
    04:00 +12°C° 0 mm 2 mps 751 mmHg 89%
    05:00 +12°C° 0 mm 2 mps 751 mmHg 89%
    06:00 +14°C° 0 mm 2 mps 751 mmHg 82%
    07:00 +16°C° 0 mm 2 mps 751 mmHg 74%
    08:00 +18°C° 0 mm 2 mps 751 mmHg 67%
    09:00 +20°C° 0 mm 2 mps 751 mmHg 61%
    10:00 +21°C° 0 mm 3 mps 751 mmHg 55%
    11:00 +24°C° 0 mm 3 mps 751 mmHg 50%
    12:00 +25°C° 0 mm 3 mps 751 mmHg 48%
    13:00 +25°C° 0 mm 3 mps 751 mmHg 47%
    14:00 +26°C° 0 mm 3 mps 750 mmHg 45%
    15:00 +25°C° 0 mm 2 mps 750 mmHg 50%
    16:00 +24°C° 0 mm 2 mps 750 mmHg 54%
    17:00 +24°C° 0 mm 2 mps 750 mmHg 58%
    18:00 +21°C° 0 mm 2 mps 750 mmHg 63%
    19:00 +19°C° 0 mm 2 mps 750 mmHg 68%
    20:00 +17°C° 0 mm 2 mps 750 mmHg 73%
    21:00 +16°C° 0 mm 2 mps 750 mmHg 74%
    22:00 +15°C° 0 mm 2 mps 750 mmHg 76%
    23:00 +15°C° 0 mm 2 mps 750 mmHg 78%
    Show more